Rechercher aéroport 
image banner adimage banner adimage banner ad
image banner ad

KTRM - Jacqueline Cochran Rgnl

Situé à Palm Springs, United States

ICAO - TRM, IATA -

Données fournies par Airmate  

Information générale

Coordonnées: N33°37'36" W116°9'35"
Élévation : -114 feet MSL.
Variation magnétique : 13° East
Voir autres Aéroports à California

Données opérationnelles

Special qualification required
Heure actuelle UTC:
Heure actuelle locale:
Météo
METAR: KTRM 291552Z AUTO 33007KT 10SM CLR 37/11 A2978 RMK AO2 SLP088 T03720106
TAF: KTRM 291120Z 2912/3012 33006KT P6SM SKC FM292000 15008KT P6SM SKC FM300000 VRB05KT P6SM FEW200 FM300300 33011KT P6SM SCT200 FM301000 33006KT P6SM SCT200
Voir NOTAMs / SUP AIP / TFR affectant cet aéroport [VIEW]
Fréquences de communication: [VIEW]

Pistes:

Identifiant RWYQFULongueur (ft)Largeur (ft)SurfaceLDA (ft)
12135°4995100ASPH
30315°4995100ASPH
17180°8500150ASPH
358500150ASPH

Coordonnées de l'aéroport

Adresse: Palm Springs United States

Autres services d'aviation

Écoles de pilotage

Palm Springs Pilots Association

Palm Springs Pilots Association

Socal Pilot Center

Socal Pilot Center

Palm Springs Flying School

Palm Springs Flying School
cfibrian@gmail.com+1(760)399-8371

Vue satellite de KTRM